Regional Weather Roundup
Issued by NWS Huntsville, AL

Home | Current Version | Previous Version | Text Only | Print | Product List | Glossary On
Versions: 1 2 3 4 5 6 7 8 9 10 11 12 13 14 15 16 17 18 19 20 21 22 23 24 25 26 27 28 29 30 31 32 33 34 35 36 37 38 39 40 41 42 43 44 45 46 47 48 49 50
000
ASUS44 KHUN 030910
RWRHUN

WEATHER ROUNDUP FOR THE TENNESSEE VALLEY
NATIONAL WEATHER SERVICE HUNTSVILLE AL
400 AM CDT SUN MAY 03 2015

ALZ001>004-031000-
NORTHWEST ALABAMA

CITY           SKY/WX    TMP DP  RH WIND       PRES   REMARKS
COURTLAND HCN    N/A     50 N/A N/A CALM        N/A
BANKHEAD NF      N/A     49  48  95 CALM        N/A
RUSSELLVILLE     N/A     46 N/A N/A MISG        N/A
SHOALS AIRPORT CLEAR     50  47  89 CALM      30.09S FOG
SHOALS TVA RES   N/A     50 N/A N/A MISG        N/A
$$

ALZ005>007-016-031000-
NORTH CENTRAL ALABAMA

CITY           SKY/WX    TMP DP  RH WIND       PRES   REMARKS
CULLMAN AG STN   N/A     46 N/A N/A NE3         N/A
DECATUR AP     CLEAR     50  50 100 CALM      30.09R
HUNTSVILLE AP  CLEAR     54  50  86 E5        30.09R
HUN NWS/UAH      N/A     55  49  82 CALM        N/A
MERIDIANVILLE  CLEAR     46  45  93 CALM      30.09S
REDSTONE ARSN  CLEAR     51  50  95 CALM      30.08S
VINEMONT AP    FAIR      47  47  98 CALM      30.11R
$$

ALZ008>010-031000-
NORTHEAST ALABAMA

CITY           SKY/WX    TMP DP  RH WIND       PRES   REMARKS
ALBERTVILLE    CLEAR     52  52 100 CALM      30.09S
FORT PAYNE     CLEAR     46  43  87 CALM      30.10S
SCOTTSBORO HCN   N/A     48 N/A N/A MISG        N/A
VALLEY HEAD      N/A     46 N/A N/A MISG        N/A
$$

TNZ076-096-097-031000-
SOUTHEASTERN MIDDLE TENNESSEE

CITY           SKY/WX    TMP DP  RH WIND       PRES   REMARKS
TULLAHOMA      CLEAR     46  45  93 CALM      30.10R
WINCHESTER     CLEAR     48  46  93 CALM      30.10R
$$

...SURROUNDING SITES...

CITY           SKY/WX    TMP DP  RH WIND       PRES   REMARKS
ATLANTA        CLEAR     57  48  72 SW3       30.10R
ANNISTON       CLEAR     52  49  89 CALM      30.10S
BIRMINGHAM     CLEAR     53  50  89 CALM      30.10S
CHATTANOOGA    CLEAR     52  49  89 CALM      30.11R
CORINTH        FAIR      50  50 100 CALM      30.07R
DALTON         CLEAR     46  46 100 CALM      30.10S
GADSDEN        CLEAR    N/A N/A N/A CALM      30.09R
GOLDEN TRNGL   CLEAR     54  48  82 CALM      30.06S
HALEYVILLE       N/A     47  47 100 MISG      30.11S
JACKSON TN     CLEAR     47  45  93 CALM      30.07R
LEWISBURG      FAIR      46  44  93 CALM      30.09R
MEMPHIS        CLEAR     57  46  66 CALM      30.05R
NASHVILLE      CLEAR     52  49  89 CALM      30.09R
OXFORD MS      FAIR      48  46  93 CALM      30.08R
ROME           CLEAR     49  47  93 CALM      30.10R
SAVANNAH       CLEAR     46  32  57 CALM      30.08R
TUPELO         CLEAR     53  49  86 CALM      30.07S
TUSCALOOSA     CLEAR     52  50  93 CALM      30.08S
$$

...GULF COAST WEATHER...

CITY           SKY/WX    TMP DP  RH WIND       PRES   REMARKS
GULFPORT       CLEAR     57  54  89 CALM      30.06R
PASCAGOULA     CLEAR     51  50  96 CALM      30.07S
MOBILE         CLEAR     54  52  93 CALM      30.08S
GULF SHORES    SUNNY     53  52  99 CALM      30.07S
PENSACOLA      CLEAR     54  53  97 CALM      30.07S
DESTIN         CLEAR     60  57  89 CALM      30.08S
PANAMA CITY    CLEAR     57  55  94 NE2       30.08S
APPALACHICOLA  CLEAR     59  53  80 NE3       30.07F
$$




USA.gov is the U.S. government's official web portal to all federal, state and local government web resources and services.